Temp
26 26 26 26 26 25 26 26 26 26 25 25 25 25 24 25 21 19 20 22 22 25 27 26 28 27 29 28 28 28 27 30 31 28 28 28 27 30 34 35 35 36 36 37 37 37 38 38 39 39 40 41 42 43 43 44 44 45 46 46 47 48 49 49 50 51 51 51 52 52 52 53 54 55
26 26 25 26 25 25 25 25 25 25 25 25 25 25 25 26 23 23 20 21 25 24 26 27 26 26 26 27 27 27 27 30 30 28 27 27 27 32 33 33 34 35 35 36 36 37 37 38 38 39 39 40 41 42 42 43 44 44 45 46 47 47 48 48 49 49 50 50 51 51 52 52 53 54
26 25 25 25 24 25 24 24 25 25 25 25 24 24 24 24 24 23 22 18 24 26 25 25 25 25 24 25 25 26 26 28 29 27 26 26 30 31 30 31 33 34 35 35 36 36 37 37 38 38 39 40 41 42 42 42 43 44 44 45 46 46 47 47 48 48 49 49 50 51 51 52 52 54
26 25 24 24 24 24 24 23 24 23 24 23 23 23 23 23 22 22 20 19 19 25 25 25 26 24 24 25 24 24 25 27 29 26 26 27 29 27 27 29 32 33 34 35 36 36 37 38 38 38 39 39 40 41 41 42 42 42 43 44 45 46 46 46 47 48 48 49 49 50 51 51 52 52
25 25 24 23 23 24 23 23 22 22 22 22 22 22 22 21 21 20 19 17 18 21 25 24 24 24 24 22 24 23 24 24 25 27 26 26 25 26 26 26 29 32 33 34 35 36 37 38 38 38 39 39 39 40 40 41 41 42 42 43 44 45 45 46 47 47 48 48 49 49 50 50 51 52
24 24 23 22 22 23 22 22 21 21 21 21 20 21 21 20 20 22 18 18 17 16 22 22 24 22 24 20 25 22 23 23 25 24 25 26 26 26 26 26 27 31 33 34 35 37 37 37 38 38 38 38 39 39 40 40 40 41 42 42 43 43 44 45 45 46 46 48 48 49 49 50 50 51
23 22 22 20 20 21 20 20 21 21 20 21 20 19 20 19 19 20 20 17 15 16 17 21 19 21 22 22 22 23 24 24 24 24 24 25 26 27 27 27 27 31 33 34 35 36 38 38 37 38 38 38 38 38 39 39 40 40 41 41 42 42 43 44 44 45 46 47 48 49 49 49 50 51
22 22 21 19 19 19 18 17 18 19 19 19 19 19 19 19 18 19 19 19 17 16 14 18 19 21 20 21 23 24 25 24 24 25 25 26 25 26 27 27 27 29 33 35 35 36 36 37 37 37 37 38 38 38 39 39 39 39 40 40 41 42 42 43 43 44 44 46 47 48 48 48 49 50
22 22 21 19 19 18 17 16 16 17 17 17 17 17 18 18 19 19 19 18 18 16 15 16 20 21 21 23 22 23 22 24 24 25 24 25 25 26 27 27 28 31 33 34 34 34 34 35 36 36 37 37 38 38 39 39 39 39 39 39 40 41 42 42 43 43 43 43 43 45 46 47 48 47
22 21 20 19 19 18 17 16 16 16 16 16 15 16 16 17 18 18 18 18 17 17 16 16 17 20 20 21 22 23 24 23 22 23 24 26 26 26 26 27 29 29 29 28 29 31 31 33 34 36 36 37 37 38 39 39 39 39 39 39 39 40 41 42 42 43 42 42 43 43 44 46 47 47
21 20 20 19 19 18 17 16 16 15 15 15 15 15 15 17 17 16 17 18 17 17 17 18 19 19 21 22 20 23 25 25 24 22 22 23 26 27 27 26 28 29 29 31 33 32 32 33 33 34 36 36 37 37 38 38 38 38 38 39 39 40 41 41 41 41 41 42 42 42 42 43 45 46
20 20 19 19 19 18 17 17 16 16 15 15 14 15 15 16 17 16 17 18 18 17 18 18 18 20 20 21 23 25 25 23 23 25 24 20 22 24 27 28 26 28 29 28 28 31 31 31 32 34 34 35 36 36 36 35 36 37 37 38 39 39 39 40 40 41 41 41 41 42 42 42 43 45
19 18 18 18 18 18 21 22 21 20 20 15 13 15 17 17 17 17 18 18 18 18 18 17 19 19 20 21 22 22 22 21 21 24 24 22 25 25 25 27 29 29 27 28 27 27 27 27 28 28 28 30 32 32 34 34 34 35 36 37 37 38 39 39 40 40 40 40 41 41 42 42 43 43
18 18 18 19 22 23 23 24 24 24 24 23 19 18 19 18 18 17 17 16 17 17 16 17 18 18 18 20 22 22 24 25 26 24 25 23 24 25 25 25 28 30 28 26 25 26 29 28 27 28 27 29 30 30 30 30 32 34 36 37 37 38 38 39 39 39 40 40 40 41 42 42 42 43
17 17 18 18 22 23 24 23 25 25 26 25 25 25 25 24 20 17 17 17 18 17 17 19 20 20 20 22 24 23 24 25 24 24 24 23 23 21 20 18 24 29 27 26 24 24 27 27 25 26 27 27 28 29 29 33 34 35 36 37 37 37 38 38 39 39 39 40 40 41 41 42 42 43
17 17 17 18 20 20 20 20 22 25 26 27 27 27 27 27 28 27 23 21 21 21 20 20 21 21 21 22 23 23 24 24 24 24 24 23 22 21 20 21 19 27 30 25 23 22 28 28 26 25 26 27 28 29 32 35 35 36 36 37 37 37 38 38 38 39 39 40 40 41 41 42 42 43
18 18 18 19 20 21 24 22 20 20 21 25 27 27 27 28 28 28 29 30 26 25 22 21 21 22 22 21 22 24 25 26 23 23 22 23 23 23 22 22 23 25 28 25 21 20 24 27 25 25 27 28 28 29 32 34 35 36 36 37 37 37 37 38 38 39 39 39 40 40 41 41 41 42
19 19 18 19 19 20 21 21 21 21 20 19 20 21 22 22 25 27 28 28 28 28 24 22 20 23 25 23 25 26 27 24 22 22 21 23 21 20 19 21 21 23 25 21 20 17 21 26 25 24 26 28 28 29 31 34 35 36 36 37 37 37 38 38 38 39 39 39 40 40 41 41 41 42
19 19 20 20 20 21 21 22 22 21 20 18 18 18 18 20 22 24 24 25 25 24 25 25 25 25 26 26 26 27 27 26 26 25 22 21 20 19 20 18 19 20 23 22 20 13 18 24 22 22 25 26 27 28 31 33 34 35 36 36 37 37 38 38 38 38 39 39 40 40 40 41 41 42
20 20 20 20 20 21 21 23 26 24 21 19 18 18 19 20 22 23 26 27 28 28 27 26 26 27 28 29 28 28 28 27 25 22 21 19 16 14 12 11 15 15 21 22 19 16 16 22 20 21 24 25 25 27 27 32 34 34 35 35 36 37 37 38 38 38 39 39 40 40 40 41 41 41
20 21 21 21 21 21 21 24 26 27 25 20 19 19 19 21 20 21 24 28 29 29 29 30 30 30 30 30 30 29 28 25 24 19 14 13 14 12 9 11 12 13 18 20 21 18 15 20 20 20 23 24 25 25 27 28 31 34 35 35 36 36 37 37 38 38 38 39 39 40 40 41 41 41
20 21 24 23 21 21 21 25 26 27 26 23 22 20 19 18 18 20 24 25 26 27 28 27 27 28 27 27 26 25 24 25 23 16 11 13 14 11 11 9 11 14 17 19 23 18 17 20 20 18 19 21 22 25 26 28 29 32 33 35 36 36 36 37 38 38 39 39 40 40 41 41 40 39
19 20 23 24 23 22 22 26 27 27 27 23 21 21 19 18 19 21 23 21 19 19 19 21 22 20 21 19 17 17 21 22 21 18 16 15 12 10 11 11 11 10 13 20 24 15 15 16 17 17 13 13 18 21 22 25 27 28 29 30 31 33 34 35 36 37 37 38 38 39 39 39 39 37
18 19 21 24 26 26 26 26 27 28 28 24 22 22 20 19 18 22 19 18 20 19 18 16 17 16 16 15 15 15 15 16 17 18 18 17 15 13 12 12 12 10 12 19 23 16 16 17 15 18 16 11 8 16 19 19 22 24 26 27 27 31 33 33 33 35 36 36 37 37 38 38 38 35
18 19 20 21 25 28 27 28 28 28 27 27 24 23 21 20 21 23 20 19 18 14 14 13 12 11 11 10 11 13 14 14 16 16 18 18 19 16 14 13 12 12 14 19 23 18 14 16 13 16 14 15 14 13 16 19 20 21 24 25 25 27 28 29 30 30 32 34 35 36 36 37 38 37
18 19 20 21 24 27 28 28 27 27 27 27 24 23 25 25 24 22 17 12 12 10 8 7 5 5 5 6 7 10 12 13 15 16 16 18 18 19 18 15 12 9 11 18 23 18 15 13 15 13 13 12 11 15 13 15 19 21 23 24 26 27 28 27 28 28 29 30 30 33 34 36 38 39
18 20 21 22 25 27 27 26 26 27 27 26 25 24 24 23 24 19 10 11 7 5 3 3 3 3 4 5 7 8 10 13 14 15 16 16 17 17 17 18 18 16 17 19 20 19 17 14 16 14 12 13 12 12 13 12 14 20 20 21 23 25 28 28 28 28 29 29 30 35 36 37 38 39
20 21 21 22 26 26 25 26 26 26 26 23 22 23 22 22 18 10 8 3 1 2 2 1 2 3 5 7 8 9 12 13 14 15 15 16 16 16 16 17 17 17 18 19 19 19 18 16 15 17 16 14 12 10 9 15 16 17 16 20 22 24 26 27 27 28 29 30 30 30 30 30 32 34
21 23 24 25 26 25 25 26 26 22 21 21 21 20 21 17 8 4 -1 -0 -2 -1 -0 1 2 4 6 9 11 13 13 14 14 13 13 14 14 14 14 15 15 16 17 18 19 19 19 17 16 17 16 15 13 13 13 12 14 14 17 16 16 21 25 27 28 28 28 29 29 29 29 30 30 33
25 25 25 25 25 25 24 19 15 13 15 18 19 17 15 8 2 -1 -1 -2 -2 -1 1 3 3 5 7 9 11 12 13 11 9 10 9 9 9 10 11 11 13 15 17 18 20 20 20 19 18 17 15 15 15 13 13 12 12 15 17 16 17 21 23 26 28 28 28 27 28 28 30 31 31 32
23 24 24 23 23 20 20 19 18 16 14 9 9 7 6 2 -0 0 -1 0 2 4 5 4 4 6 7 9 8 7 8 7 8 11 9 8 8 10 10 10 11 12 14 17 19 20 20 20 19 19 14 13 14 14 14 15 12 13 14 16 17 13 18 23 25 27 29 29 29 29 30 31 31 33
21 20 21 18 14 12 9 7 4 5 4 4 2 1 1 0 2 6 10 10 8 6 5 4 4 4 4 3 5 6 6 6 7 9 9 8 8 10 10 9 9 11 12 14 15 17 19 19 19 18 17 15 12 13 15 14 13 13 14 16 17 18 20 20 22 23 26 28 28 28 30 31 31 31
13 11 8 7 7 5 4 1 0 -1 -3 -2 -2 -3 -4 -4 -3 -4 -4 -3 -1 0 -1 0 1 2 2 3 4 5 4 5 7 9 8 9 9 10 11 9 10 10 10 11 13 13 15 16 18 18 18 17 17 15 13 10 12 13 13 14 15 15 17 19 21 23 26 26 24 26 27 31 32 33
10 9 7 6 4 3 2 -1 -2 -2 -2 -3 -3 -4 3 2 -3 -2 -2 -1 -1 0 1 1 1 1 2 2 3 3 4 5 6 9 11 9 10 9 9 9 10 11 11 10 11 12 12 13 14 15 16 16 17 16 15 12 11 12 14 14 14 14 16 18 20 22 24 25 26 25 26 28 31 33
9 7 6 3 2 1 0 0 -1 -2 -2 -2 -3 -4 -4 -6 -2 1 -1 -1 -0 0 1 1 1 2 1 2 3 3 4 5 6 7 8 9 9 9 10 9 10 10 10 10 10 11 12 12 12 11 11 12 11 14 20 17 13 12 13 14 15 15 15 18 19 21 23 25 28 26 26 28 30 32
8 7 5 3 0 -1 -1 -1 -1 -1 -2 -2 -2 -3 -4 -4 -2 -1 -1 2 0 -1 -0 0 1 1 2 2 3 4 4 6 6 6 7 8 8 10 11 10 10 10 10 9 10 11 11 11 11 8 7 7 6 6 8 20 21 16 13 13 15 16 18 20 22 22 23 24 27 27 25 26 28 31
6 5 5 3 -0 -1 -2 -1 -2 -3 -2 -3 -3 -3 -3 -3 -1 1 3 5 2 0 1 2 2 2 2 3 3 4 5 5 4 6 7 8 9 10 10 10 10 9 9 9 11 11 11 10 11 9 7 5 4 3 6 12 18 23 18 14 14 16 16 17 17 18 24 27 27 28 28 29 29 32
5 4 2 1 -1 -2 -2 -3 -2 -3 -3 -3 -3 -3 -2 -1 0 2 4 1 -0 -1 0 -1 -0 1 2 3 3 3 4 5 6 6 7 8 9 9 10 8 8 8 8 9 10 11 12 11 10 9 8 5 4 4 4 9 11 15 22 19 15 15 18 17 17 19 22 27 28 30 31 29 30 33
5 2 2 0 -2 -3 -4 -4 -4 -4 -3 -4 -4 -4 -3 -3 -2 -1 -1 -2 -1 -2 -2 -1 0 2 2 3 3 3 4 4 5 7 8 9 10 10 9 8 7 8 8 8 10 10 10 10 10 10 9 7 5 6 8 7 8 13 18 22 19 15 15 15 14 15 15 18 24 30 32 34 36 36
3 3 2 0 -2 -3 -4 -4 -4 -4 -5 -4 -5 -5 -4 -3 -3 -3 -4 -3 -3 -1 0 2 3 4 2 2 2 3 4 5 7 8 9 10 11 10 9 8 7 7 7 7 7 8 9 9 10 10 11 11 12 13 13 12 13 14 14 17 22 19 16 16 14 14 15 18 21 20 24 31 30 33
-0 -1 -1 -1 -4 -4 -5 -5 -5 -5 -6 -5 -6 -3 -1 -2 -3 -4 -4 -3 -0 1 2 1 -1 -1 -1 1 2 3 4 6 8 9 10 10 10 10 9 9 7 7 6 6 7 7 8 11 14 18 16 14 14 14 11 7 6 8 11 14 20 22 23 22 18 16 15 17 17 18 20 24 29 30
1 0 -2 -5 -6 -6 -6 -7 -6 -8 -8 -7 -7 -7 -6 -5 -5 1 2 2 -0 -3 -4 -3 -2 -1 0 1 3 5 6 7 8 9 10 10 9 9 8 7 5 6 6 5 6 8 11 14 14 14 13 13 11 8 5 6 6 8 10 13 15 20 23 23 24 23 21 19 17 16 19 22 27 28
-1 -2 -6 -6 -7 -8 -8 -8 -9 -9 -9 -9 -8 -7 -7 -7 -6 -5 -5 -6 -5 -5 -4 -3 -2 -1 0 2 3 6 7 8 9 10 10 10 8 7 6 6 6 6 6 7 9 10 11 12 13 12 12 11 10 9 6 7 8 9 9 11 12 15 17 22 24 24 25 26 26 23 23 23 25 25
-3 -3 -5 -7 -9 -8 -9 -10 -11 -11 -10 -9 -8 -8 -7 -8 -7 -6 -6 -6 -6 -5 -4 -3 -2 -1 0 2 5 7 9 10 10 10 10 9 8 7 6 6 7 7 7 7 8 9 10 10 11 12 9 9 10 8 7 8 8 9 10 11 13 13 13 16 19 22 24 25 26 27 29 29 29 31
-4 -4 -6 -8 -9 -10 -12 -13 -12 -11 -11 -10 -10 -10 -8 -7 -7 -6 -6 -6 -6 -5 -4 -3 -2 -1 1 4 6 6 9 12 12 11 9 8 7 7 7 6 6 6 6 7 7 7 9 9 10 11 10 10 11 9 9 9 9 9 10 10 10 12 14 15 15 16 19 22 27 30 30 31 31 31
MSLP
1021.67 1021.95 1022.03 1022.11 1022.43 1022.63 1022.83 1023.03 1023.23 1023.43 1023.63 1023.83 1023.99 1024.19 1024.55 1024.91 1025.35 1025.71 1025.31 1024.47 1024.39 1023.07 1023.31 1023.39 1022.87 1023.19 1023.23 1023.27 1023.35 1023.31 1023.23 1023.11 1022.99 1022.95 1022.91 1022.79 1022.59 1022.31 1021.95 1021.63 1021.31 1021.03 1020.59 1020.23 1019.91 1019.59 1019.31 1019.11 1018.87 1018.63 1018.35 1018.11 1017.87 1017.67 1017.47 1017.27 1017.07 1016.91 1016.71 1016.51 1016.31 1016.07 1015.83 1015.59 1015.35 1014.99 1014.75 1014.67 1014.51 1014.31 1013.75 1013.51 1013.43 1013.19
1021.59 1021.79 1021.95 1022.03 1022.15 1022.35 1022.55 1022.79 1023.07 1023.27 1023.39 1023.55 1023.75 1023.95 1024.23 1024.31 1024.75 1024.71 1024.83 1024.47 1023.87 1023.23 1022.95 1023.15 1022.95 1023.15 1023.47 1023.67 1023.75 1023.67 1023.35 1023.07 1022.83 1022.71 1022.67 1022.55 1022.39 1022.03 1021.79 1021.55 1021.23 1020.83 1020.55 1020.27 1019.99 1019.67 1019.31 1018.99 1018.75 1018.55 1018.35 1018.15 1017.91 1017.67 1017.47 1017.23 1017.03 1016.79 1016.51 1016.27 1016.03 1015.79 1015.51 1015.27 1014.99 1014.71 1014.47 1014.27 1014.11 1013.87 1013.71 1013.19 1012.95 1012.91
1021.43 1021.59 1021.71 1021.83 1021.91 1022.11 1022.31 1022.67 1022.91 1023.07 1023.23 1023.35 1023.51 1023.75 1023.95 1024.15 1024.31 1024.39 1024.67 1024.91 1023.39 1022.91 1022.95 1022.83 1023.27 1023.39 1023.55 1023.75 1023.67 1023.55 1023.47 1023.23 1022.95 1022.67 1022.39 1022.11 1021.87 1021.63 1021.47 1021.23 1020.91 1020.55 1020.27 1019.99 1019.71 1019.47 1019.27 1019.03 1018.83 1018.63 1018.35 1018.07 1017.79 1017.51 1017.23 1016.99 1016.71 1016.47 1016.31 1016.07 1015.79 1015.47 1015.19 1014.87 1014.55 1014.31 1014.07 1013.87 1013.67 1013.43 1013.19 1013.07 1012.67 1012.43
1021.23 1021.39 1021.51 1021.59 1021.71 1021.95 1022.23 1022.51 1022.79 1023.03 1023.23 1023.43 1023.55 1023.71 1023.79 1023.91 1024.07 1024.31 1024.59 1024.39 1023.67 1022.91 1022.75 1022.95 1023.23 1023.55 1023.75 1023.75 1023.63 1023.31 1023.15 1022.91 1022.75 1022.55 1022.35 1022.03 1021.59 1021.31 1021.07 1020.83 1020.55 1020.23 1019.95 1019.67 1019.43 1019.15 1018.87 1018.67 1018.47 1018.27 1018.11 1017.87 1017.63 1017.35 1017.11 1016.87 1016.63 1016.43 1016.15 1015.87 1015.55 1015.19 1014.83 1014.47 1014.15 1013.83 1013.59 1013.35 1013.15 1012.91 1012.71 1012.51 1012.43 1012.11
1021.03 1021.19 1021.31 1021.47 1021.63 1021.83 1022.03 1022.39 1022.71 1022.99 1023.31 1023.51 1023.67 1023.75 1023.83 1023.95 1024.03 1024.19 1024.35 1024.47 1023.59 1023.31 1023.15 1023.15 1023.31 1023.51 1023.75 1023.87 1023.59 1023.35 1023.11 1022.79 1022.35 1022.11 1021.91 1021.71 1021.51 1021.23 1020.95 1020.63 1020.39 1020.11 1019.71 1019.43 1019.19 1018.99 1018.71 1018.43 1018.27 1017.99 1017.79 1017.67 1017.47 1017.23 1016.95 1016.63 1016.39 1016.19 1015.91 1015.59 1015.27 1014.91 1014.47 1014.07 1013.79 1013.47 1013.19 1012.91 1012.67 1012.47 1012.27 1012.15 1011.99 1011.87
1020.71 1020.99 1021.19 1021.47 1021.63 1021.67 1021.79 1022.19 1022.55 1022.91 1023.27 1023.59 1023.83 1023.91 1023.87 1023.87 1023.91 1023.83 1024.23 1024.23 1024.19 1023.15 1023.27 1023.19 1023.19 1023.47 1023.39 1023.71 1023.35 1023.23 1022.83 1022.59 1022.23 1021.87 1021.59 1021.39 1021.19 1020.91 1020.59 1020.31 1020.03 1019.87 1019.47 1019.11 1018.83 1018.59 1018.51 1018.31 1018.03 1017.83 1017.63 1017.47 1017.31 1017.03 1016.75 1016.47 1016.19 1015.87 1015.59 1015.27 1014.91 1014.51 1014.07 1013.71 1013.39 1013.11 1012.83 1012.55 1012.31 1012.07 1011.91 1011.75 1011.67 1011.51
1020.39 1020.79 1021.07 1021.35 1021.51 1021.63 1021.79 1022.07 1022.39 1022.75 1023.11 1023.43 1023.67 1023.79 1023.67 1023.75 1023.71 1023.79 1023.87 1024.23 1024.15 1023.59 1023.03 1023.19 1023.15 1023.11 1023.23 1023.27 1022.91 1022.59 1022.35 1022.03 1021.83 1021.55 1021.27 1021.03 1020.75 1020.67 1020.35 1020.03 1019.71 1019.51 1019.27 1018.91 1018.59 1018.31 1018.07 1017.99 1017.87 1017.63 1017.47 1017.19 1016.91 1016.75 1016.51 1016.19 1015.91 1015.63 1015.27 1014.91 1014.51 1014.07 1013.67 1013.31 1013.03 1012.71 1012.43 1012.15 1011.91 1011.67 1011.47 1011.35 1011.15 1010.99
1019.99 1020.27 1020.79 1021.19 1021.31 1021.43 1021.55 1021.91 1022.23 1022.55 1022.91 1023.19 1023.47 1023.55 1023.55 1023.51 1023.59 1023.59 1023.79 1023.91 1024.07 1023.71 1023.47 1022.55 1023.11 1022.75 1022.87 1022.67 1022.43 1022.11 1021.75 1021.51 1021.19 1021.03 1020.63 1020.51 1020.43 1020.15 1019.95 1019.71 1019.47 1019.23 1018.83 1018.47 1018.19 1017.91 1017.75 1017.67 1017.63 1017.43 1017.19 1016.95 1016.71 1016.43 1016.11 1015.79 1015.47 1015.11 1014.79 1014.43 1013.99 1013.59 1013.23 1012.99 1012.75 1012.55 1012.31 1011.99 1011.75 1011.43 1011.19 1011.03 1010.79 1010.63
1019.51 1019.95 1020.23 1020.75 1021.03 1021.11 1021.23 1021.71 1021.95 1022.27 1022.63 1022.95 1023.19 1023.31 1023.35 1023.35 1023.35 1023.51 1023.63 1023.87 1023.91 1023.79 1023.43 1022.39 1022.43 1022.63 1022.23 1022.07 1021.91 1021.71 1021.39 1020.79 1020.63 1020.35 1020.11 1019.95 1019.75 1019.47 1019.39 1019.23 1019.07 1018.75 1018.39 1018.03 1017.75 1017.59 1017.47 1017.31 1017.15 1016.99 1016.79 1016.51 1016.19 1015.87 1015.51 1015.11 1014.79 1014.51 1014.27 1013.95 1013.63 1013.31 1012.99 1012.67 1012.43 1012.19 1011.91 1011.75 1011.63 1011.39 1011.11 1010.87 1010.55 1010.39
1019.35 1019.67 1020.07 1020.43 1020.55 1020.63 1020.71 1021.15 1021.67 1022.03 1022.39 1022.75 1023.07 1023.27 1023.31 1023.31 1023.39 1023.55 1023.71 1023.75 1023.79 1023.75 1023.23 1022.99 1021.95 1021.79 1021.91 1021.31 1021.43 1021.23 1021.19 1020.99 1019.87 1019.23 1019.51 1019.39 1019.15 1018.95 1018.71 1018.63 1018.51 1018.27 1018.07 1017.63 1017.31 1017.19 1016.99 1016.87 1016.79 1016.59 1016.31 1016.11 1015.79 1015.47 1015.11 1014.79 1014.43 1014.11 1013.79 1013.51 1013.19 1012.91 1012.59 1012.27 1011.87 1011.55 1011.47 1011.39 1011.31 1011.07 1010.83 1010.59 1010.35 1010.07
1019.39 1019.67 1019.95 1020.15 1020.23 1020.31 1020.47 1020.91 1021.39 1021.91 1022.39 1022.71 1023.03 1023.15 1023.27 1023.31 1023.43 1023.59 1023.63 1023.59 1023.55 1023.35 1023.03 1022.51 1022.23 1021.63 1021.35 1021.59 1021.03 1020.71 1020.99 1020.75 1020.67 1019.75 1018.23 1018.11 1018.87 1018.63 1018.35 1017.91 1017.75 1017.83 1017.35 1017.15 1016.91 1016.59 1016.59 1016.51 1016.35 1016.15 1016.03 1015.79 1015.51 1015.15 1014.75 1014.39 1014.07 1013.67 1013.27 1012.95 1012.63 1012.27 1011.91 1011.63 1011.47 1011.27 1011.11 1010.95 1010.75 1010.51 1010.31 1010.11 1009.87 1009.55
1019.35 1019.67 1019.91 1020.03 1020.11 1020.23 1020.51 1020.87 1021.39 1021.75 1022.19 1022.63 1022.99 1022.99 1023.11 1023.19 1023.27 1023.39 1023.35 1023.27 1023.11 1022.99 1022.75 1022.43 1021.91 1021.55 1021.31 1020.71 1020.59 1020.43 1020.19 1019.91 1019.75 1019.79 1019.47 1018.39 1017.79 1017.91 1017.83 1017.95 1017.43 1016.83 1016.87 1016.19 1016.11 1016.27 1016.15 1015.91 1015.79 1015.55 1015.39 1015.31 1015.11 1014.59 1014.23 1013.99 1013.67 1013.27 1012.87 1012.55 1012.23 1011.95 1011.63 1011.31 1010.99 1010.75 1010.51 1010.27 1010.11 1009.87 1009.67 1009.47 1009.27 1008.99
1019.35 1019.67 1019.87 1019.99 1020.15 1020.35 1020.59 1020.87 1021.27 1021.55 1021.87 1022.31 1022.63 1022.71 1022.71 1022.83 1022.87 1022.87 1022.75 1022.71 1022.59 1022.51 1022.43 1022.23 1021.91 1021.55 1021.07 1020.79 1020.43 1020.11 1020.11 1020.07 1019.91 1019.31 1019.23 1018.55 1017.87 1017.51 1017.19 1017.03 1017.31 1016.83 1016.27 1015.75 1015.35 1015.55 1015.95 1015.55 1014.83 1014.95 1014.63 1014.31 1014.43 1013.95 1013.59 1013.31 1013.03 1012.75 1012.31 1011.99 1011.67 1011.31 1010.95 1010.59 1010.31 1010.03 1009.79 1009.59 1009.35 1009.15 1008.91 1008.71 1008.51 1008.27
1019.27 1019.55 1019.71 1019.83 1019.87 1020.07 1020.31 1020.59 1020.87 1021.15 1021.39 1021.67 1021.99 1022.11 1022.19 1022.43 1022.47 1022.47 1022.47 1022.39 1022.35 1022.31 1022.19 1022.03 1021.75 1021.31 1020.95 1020.59 1020.27 1020.03 1019.79 1019.63 1019.35 1019.19 1018.87 1018.35 1017.67 1017.31 1016.63 1016.59 1016.91 1016.35 1015.91 1015.43 1014.83 1014.51 1015.23 1015.03 1013.95 1014.03 1013.71 1013.31 1013.55 1013.03 1012.75 1012.43 1012.27 1011.79 1011.43 1011.07 1010.71 1010.47 1010.19 1009.99 1009.71 1009.39 1009.15 1008.91 1008.67 1008.43 1008.15 1007.91 1007.71 1007.51
1018.91 1019.27 1019.47 1019.63 1019.63 1019.79 1019.99 1020.27 1020.47 1020.71 1020.87 1021.07 1021.23 1021.43 1021.51 1021.67 1021.87 1022.11 1022.07 1022.07 1022.03 1022.07 1021.75 1021.47 1021.23 1020.99 1020.51 1020.07 1019.95 1019.83 1019.63 1019.43 1019.47 1019.19 1018.95 1018.83 1018.19 1017.95 1017.51 1016.19 1015.47 1016.31 1016.03 1013.83 1013.67 1013.67 1014.35 1014.51 1013.39 1012.55 1012.71 1012.91 1012.43 1011.79 1011.75 1011.51 1011.19 1010.95 1010.59 1010.27 1009.99 1009.71 1009.43 1009.19 1008.95 1008.67 1008.39 1008.11 1007.87 1007.67 1007.39 1007.11 1006.87 1006.59
1018.43 1018.79 1019.07 1019.31 1019.43 1019.51 1019.71 1019.99 1020.19 1020.31 1020.39 1020.51 1020.63 1020.75 1020.87 1020.95 1020.91 1020.91 1021.07 1021.19 1021.11 1021.03 1021.03 1020.95 1020.95 1020.83 1020.39 1020.11 1019.91 1019.83 1019.75 1019.43 1019.15 1019.19 1019.11 1018.87 1018.63 1018.03 1017.51 1017.07 1016.63 1015.79 1016.27 1015.19 1013.27 1011.59 1013.51 1014.03 1013.27 1011.83 1011.55 1012.23 1011.83 1011.03 1010.87 1010.67 1010.39 1010.19 1009.87 1009.59 1009.27 1008.99 1008.71 1008.43 1008.15 1007.83 1007.51 1007.27 1007.03 1006.79 1006.51 1006.23 1005.95 1005.71
1017.87 1018.31 1018.63 1018.91 1019.11 1019.23 1019.31 1019.59 1019.95 1020.23 1020.31 1020.31 1020.39 1020.55 1020.63 1020.67 1020.67 1020.59 1020.43 1020.35 1020.47 1020.55 1020.67 1020.71 1020.71 1020.75 1020.47 1020.23 1019.99 1019.87 1019.71 1019.55 1019.23 1018.91 1018.91 1018.71 1018.31 1017.87 1017.27 1016.71 1016.51 1016.31 1016.87 1016.47 1014.27 1011.91 1011.35 1013.79 1013.03 1011.51 1010.43 1011.31 1011.11 1010.47 1010.15 1009.95 1009.87 1009.59 1009.27 1008.87 1008.55 1008.27 1007.91 1007.59 1007.27 1006.95 1006.67 1006.43 1006.19 1005.91 1005.63 1005.35 1005.15 1004.91
1017.31 1017.71 1017.99 1018.27 1018.55 1018.79 1018.95 1019.19 1019.63 1019.99 1020.31 1020.59 1020.75 1020.75 1020.79 1020.87 1020.79 1020.63 1020.51 1020.47 1020.43 1020.39 1020.43 1020.51 1020.51 1020.27 1020.35 1019.95 1019.63 1019.59 1019.75 1019.67 1019.43 1018.99 1018.55 1018.47 1018.27 1018.19 1017.99 1017.39 1017.19 1016.67 1017.43 1017.43 1015.59 1012.63 1010.87 1013.11 1012.75 1011.59 1010.19 1010.39 1010.19 1009.83 1009.51 1009.27 1009.07 1008.75 1008.39 1007.99 1007.63 1007.31 1006.99 1006.67 1006.39 1006.11 1005.83 1005.59 1005.35 1005.07 1004.79 1004.51 1004.27 1004.07
1016.91 1017.31 1017.59 1017.75 1017.87 1018.15 1018.51 1018.79 1019.19 1019.67 1020.15 1020.59 1020.79 1020.91 1020.95 1020.87 1020.75 1020.63 1020.55 1020.51 1020.51 1020.51 1020.43 1020.35 1020.15 1019.91 1019.91 1019.75 1019.55 1019.47 1019.43 1019.43 1019.11 1018.99 1018.95 1018.95 1018.79 1018.43 1017.95 1017.39 1017.15 1016.79 1016.79 1016.75 1016.23 1014.19 1011.03 1012.75 1012.79 1011.51 1010.47 1009.75 1009.31 1008.91 1008.75 1008.67 1008.43 1008.11 1007.59 1007.15 1006.71 1006.31 1005.99 1005.67 1005.39 1005.15 1004.87 1004.67 1004.39 1004.11 1003.87 1003.67 1003.39 1003.15
1016.75 1016.99 1017.19 1017.35 1017.47 1017.67 1018.07 1018.39 1018.63 1019.19 1019.79 1020.23 1020.51 1020.59 1020.59 1020.55 1020.39 1020.27 1020.15 1020.11 1019.99 1019.95 1019.95 1019.91 1019.83 1019.75 1019.63 1019.47 1019.39 1019.27 1019.11 1019.03 1019.15 1019.11 1018.95 1018.99 1018.99 1018.79 1018.35 1017.51 1016.83 1016.75 1016.27 1016.31 1015.83 1014.35 1012.35 1012.83 1012.91 1011.15 1009.95 1009.27 1008.51 1007.75 1007.59 1007.43 1007.51 1007.23 1006.71 1006.27 1005.87 1005.43 1005.07 1004.75 1004.47 1004.19 1003.91 1003.67 1003.43 1003.27 1003.03 1002.75 1002.51 1002.35
1016.47 1016.71 1016.87 1016.99 1017.15 1017.39 1017.71 1017.95 1018.19 1018.55 1018.99 1019.63 1019.91 1019.99 1019.99 1019.91 1019.91 1019.91 1019.83 1019.71 1019.63 1019.59 1019.63 1019.63 1019.63 1019.63 1019.55 1019.47 1019.39 1019.31 1019.35 1019.43 1019.39 1019.31 1019.19 1018.95 1018.91 1018.71 1018.23 1016.99 1016.67 1016.15 1016.15 1015.79 1015.47 1014.63 1013.31 1012.59 1012.19 1010.95 1009.59 1008.67 1008.03 1007.23 1006.83 1006.39 1006.31 1006.11 1005.79 1005.27 1004.91 1004.59 1004.19 1003.87 1003.59 1003.31 1003.03 1002.75 1002.55 1002.27 1002.03 1001.79 1001.59 1001.47
1016.15 1016.43 1016.63 1016.91 1017.15 1017.27 1017.55 1017.75 1017.87 1018.07 1018.23 1018.55 1018.83 1019.07 1019.27 1019.51 1019.63 1019.59 1019.43 1019.35 1019.39 1019.55 1019.71 1019.75 1019.75 1019.63 1019.59 1019.67 1019.71 1019.79 1019.75 1019.59 1019.55 1019.59 1019.43 1018.87 1018.99 1018.55 1018.19 1017.43 1016.19 1015.31 1015.35 1015.39 1015.03 1014.07 1013.39 1012.79 1012.47 1011.99 1010.47 1008.67 1007.11 1006.99 1006.35 1005.71 1005.31 1005.03 1004.79 1004.47 1004.19 1003.79 1003.47 1003.15 1002.83 1002.55 1002.11 1001.75 1001.51 1001.27 1001.07 1000.87 1000.83 1000.87
1015.75 1016.15 1016.39 1016.67 1016.99 1017.35 1017.63 1017.63 1017.63 1017.67 1017.75 1018.11 1018.35 1018.63 1018.91 1019.11 1019.23 1019.07 1019.11 1019.27 1019.47 1019.59 1019.63 1019.59 1019.71 1019.87 1019.91 1019.95 1020.03 1019.99 1019.79 1019.63 1019.51 1019.47 1019.19 1018.91 1018.83 1018.27 1017.59 1017.15 1016.27 1015.19 1013.75 1014.59 1014.75 1014.55 1013.55 1013.71 1012.31 1012.83 1011.27 1009.15 1006.27 1006.83 1006.51 1005.71 1004.99 1004.71 1004.35 1003.91 1003.59 1003.27 1003.07 1002.71 1002.47 1002.03 1001.63 1001.15 1000.83 1000.67 1000.51 1000.35 1000.35 1000.27
1015.27 1015.67 1015.91 1016.03 1016.31 1016.79 1017.11 1017.23 1017.31 1017.35 1017.35 1017.71 1017.99 1018.19 1018.51 1018.59 1018.71 1018.75 1019.11 1019.23 1019.15 1019.19 1019.55 1019.87 1019.95 1019.95 1019.91 1019.91 1019.87 1019.79 1019.71 1019.55 1019.43 1019.15 1018.87 1018.59 1018.27 1017.79 1017.11 1016.63 1016.27 1015.59 1013.79 1013.75 1014.75 1014.43 1013.47 1013.47 1012.27 1012.35 1012.23 1011.23 1007.75 1005.47 1005.31 1004.87 1005.03 1004.59 1004.39 1003.75 1002.75 1002.07 1002.27 1002.03 1001.59 1001.27 1001.03 1000.75 1000.51 1000.19 999.95 999.79 999.83 999.71
1014.51 1014.99 1015.35 1015.63 1015.71 1015.83 1016.19 1016.47 1016.67 1016.91 1017.11 1017.27 1017.51 1017.71 1018.03 1018.27 1018.43 1018.59 1018.75 1018.95 1019.27 1019.63 1019.71 1019.83 1019.99 1019.95 1019.91 1019.87 1019.71 1019.51 1019.31 1019.19 1019.03 1018.87 1018.55 1018.19 1017.79 1017.31 1016.71 1016.11 1015.59 1014.79 1013.71 1013.83 1014.55 1014.31 1013.23 1012.63 1011.63 1011.43 1010.47 1010.27 1009.03 1007.35 1004.59 1003.83 1003.59 1004.03 1003.55 1003.15 1002.31 1001.31 1001.43 1000.95 1000.71 1000.23 1000.03 999.87 999.67 999.43 999.15 998.95 998.79 998.79
1013.99 1014.39 1014.79 1015.23 1015.39 1015.35 1015.51 1015.87 1016.27 1016.55 1016.79 1016.87 1017.15 1017.43 1017.59 1017.83 1018.15 1018.31 1018.91 1019.55 1019.63 1019.83 1019.95 1020.11 1020.15 1020.11 1019.95 1019.67 1019.43 1019.15 1018.95 1018.79 1018.63 1018.43 1018.19 1017.87 1017.47 1017.11 1016.71 1016.39 1015.83 1014.87 1013.11 1013.07 1014.07 1013.91 1013.59 1012.39 1011.67 1011.11 1009.87 1009.15 1007.63 1007.55 1005.47 1002.63 1001.87 1003.55 1002.83 1002.19 1001.75 1000.79 1000.59 1000.15 999.67 999.15 998.83 998.67 998.51 998.35 998.19 997.95 997.79 997.55
1013.31 1013.87 1014.35 1014.79 1015.03 1015.07 1015.35 1015.71 1015.99 1016.19 1016.35 1016.59 1016.87 1017.23 1017.55 1017.91 1018.03 1018.59 1019.43 1019.47 1019.67 1019.79 1020.07 1020.27 1020.19 1019.91 1019.63 1019.31 1018.95 1018.79 1018.59 1018.31 1018.15 1017.95 1017.79 1017.55 1017.23 1016.75 1016.27 1015.95 1015.59 1014.79 1013.51 1012.91 1012.87 1012.99 1012.99 1012.11 1011.43 1011.31 1010.15 1008.99 1008.19 1006.51 1005.47 1003.99 1001.31 1001.51 1002.39 1001.43 1001.31 1000.27 999.67 999.51 998.79 998.11 997.75 997.59 997.35 997.27 997.19 996.95 996.71 996.51
1012.95 1013.27 1013.71 1014.11 1014.39 1014.79 1015.07 1015.31 1015.55 1015.79 1016.03 1016.55 1016.99 1017.31 1017.63 1017.79 1018.39 1019.07 1019.23 1019.55 1019.75 1020.11 1020.35 1020.43 1020.15 1019.63 1019.07 1018.79 1018.55 1018.35 1018.11 1017.83 1017.63 1017.47 1017.31 1017.11 1016.75 1016.23 1015.55 1015.07 1014.75 1014.31 1013.59 1012.99 1012.47 1012.23 1012.07 1011.59 1010.67 1010.15 1010.03 1009.03 1008.27 1007.07 1005.15 1002.55 1002.87 1001.95 1001.27 1000.43 1000.31 999.19 998.95 998.99 998.19 997.43 997.03 996.91 996.71 996.43 996.47 996.11 995.87 995.87
1012.51 1012.91 1013.43 1013.95 1014.27 1014.71 1014.95 1015.03 1015.31 1015.99 1016.47 1016.79 1017.11 1017.39 1017.59 1018.15 1018.91 1019.15 1019.51 1019.75 1020.11 1020.39 1020.47 1020.27 1019.79 1019.07 1018.63 1018.31 1018.03 1017.83 1017.63 1017.39 1017.19 1017.03 1016.79 1016.67 1016.31 1015.75 1015.03 1014.23 1013.75 1013.39 1012.99 1012.43 1011.99 1011.59 1011.39 1010.99 1010.15 1009.39 1008.87 1008.35 1007.95 1006.43 1005.71 1003.59 1002.23 1001.23 1001.51 1000.91 998.83 998.39 998.31 997.43 997.11 996.59 996.07 995.87 995.55 995.35 995.23 995.07 994.91 994.91
1012.47 1012.87 1013.31 1013.83 1014.23 1014.51 1014.79 1015.31 1015.99 1016.59 1016.95 1017.19 1017.39 1017.75 1018.15 1018.87 1019.15 1019.47 1019.71 1020.03 1020.35 1020.51 1020.31 1019.91 1019.31 1018.75 1018.35 1018.07 1017.75 1017.59 1017.39 1017.15 1016.95 1016.87 1016.59 1016.27 1015.71 1015.31 1014.59 1013.51 1012.31 1012.07 1011.87 1011.63 1011.19 1010.75 1010.55 1010.11 1009.63 1009.03 1008.07 1007.15 1007.11 1006.15 1004.95 1004.23 1001.79 1000.63 1001.11 1000.67 998.95 998.03 996.99 997.03 996.19 995.39 994.99 994.71 994.59 994.47 994.11 994.15 993.87 993.95
1012.47 1012.79 1013.23 1013.71 1014.27 1014.83 1015.15 1015.51 1015.99 1016.67 1017.31 1017.83 1018.23 1018.59 1018.91 1019.15 1019.39 1019.59 1019.91 1020.19 1020.35 1020.15 1019.79 1019.39 1018.99 1018.63 1018.27 1017.91 1017.71 1017.43 1017.19 1016.87 1016.63 1016.63 1016.31 1015.91 1015.15 1014.67 1013.95 1013.11 1011.71 1010.95 1010.55 1010.63 1010.43 1010.07 1009.75 1009.39 1008.87 1008.43 1007.55 1006.35 1005.79 1005.35 1004.51 1003.75 1002.07 1000.23 999.87 999.99 999.75 998.39 995.63 996.67 995.67 994.83 994.39 994.11 993.75 993.35 993.03 992.83 992.67 992.67
1012.39 1012.75 1013.31 1014.11 1014.87 1015.39 1015.83 1016.23 1016.83 1017.47 1017.99 1018.31 1018.67 1018.95 1019.15 1019.35 1019.47 1019.47 1019.43 1019.51 1019.63 1019.59 1019.51 1019.31 1018.95 1018.63 1018.27 1018.07 1017.63 1017.23 1016.87 1016.51 1016.23 1016.15 1015.95 1015.47 1014.59 1013.83 1013.31 1012.39 1010.99 1010.23 1009.55 1009.39 1009.43 1009.23 1008.99 1008.67 1008.19 1007.55 1006.99 1006.07 1005.07 1003.87 1003.75 1002.67 1001.27 1000.07 999.23 998.67 998.55 996.99 995.95 995.51 994.95 994.31 994.15 994.15 993.35 992.35 991.79 991.67 991.47 991.39
1013.19 1013.71 1014.31 1014.75 1015.27 1015.43 1015.63 1016.27 1016.83 1017.47 1017.83 1018.23 1018.71 1018.95 1019.11 1019.15 1019.23 1019.43 1019.71 1019.83 1019.75 1019.59 1019.47 1019.19 1018.83 1018.43 1018.07 1017.71 1017.31 1016.87 1016.43 1015.99 1015.83 1015.63 1015.39 1014.75 1014.31 1013.15 1012.59 1011.83 1010.59 1009.83 1009.03 1008.07 1007.91 1007.99 1007.91 1007.51 1007.19 1006.55 1005.79 1004.99 1004.39 1003.67 1002.99 1001.67 999.67 999.63 999.11 997.71 997.75 996.35 994.99 995.23 994.91 993.55 993.15 993.27 992.27 991.43 990.95 990.47 990.27 990.15
1013.03 1013.55 1014.07 1014.63 1014.95 1015.35 1015.59 1015.95 1016.43 1016.83 1017.39 1017.67 1018.03 1018.51 1018.59 1018.67 1018.99 1019.27 1019.35 1019.39 1019.27 1019.15 1018.99 1018.71 1018.43 1018.07 1017.75 1017.39 1016.99 1016.63 1016.11 1015.39 1015.07 1014.95 1014.83 1014.07 1013.47 1012.87 1011.87 1010.95 1009.87 1009.19 1008.83 1008.07 1007.39 1006.95 1006.51 1006.03 1005.71 1004.91 1004.27 1003.43 1002.67 1002.19 1002.03 1001.39 999.07 998.19 998.03 997.35 996.67 995.59 994.07 994.43 993.71 993.07 992.63 991.75 991.03 990.31 989.59 989.03 988.75 988.75
1012.71 1013.39 1013.87 1014.67 1015.07 1015.19 1015.47 1015.63 1015.91 1016.75 1017.03 1017.47 1017.83 1018.19 1018.55 1018.79 1018.91 1018.91 1018.91 1018.87 1018.83 1018.71 1018.55 1018.27 1017.99 1017.71 1017.51 1017.11 1016.67 1016.31 1015.67 1015.11 1014.43 1014.11 1013.87 1013.63 1012.91 1012.27 1011.39 1010.47 1009.31 1008.55 1008.03 1007.43 1006.79 1006.19 1005.91 1005.03 1004.55 1003.51 1002.43 1001.87 1000.91 999.07 999.95 1000.11 998.87 997.03 997.03 996.15 995.79 994.95 993.51 993.27 993.07 991.95 991.59 990.67 990.07 989.23 988.31 987.83 987.43 987.15
1012.63 1013.15 1013.71 1014.31 1014.55 1014.95 1015.07 1015.47 1016.15 1016.51 1016.75 1017.23 1017.63 1018.03 1018.31 1018.55 1018.59 1018.55 1018.51 1018.35 1018.31 1018.23 1018.11 1017.95 1017.71 1017.39 1017.07 1016.67 1016.23 1015.87 1015.39 1014.87 1014.27 1013.83 1013.15 1012.63 1012.03 1011.19 1010.43 1009.71 1008.99 1008.27 1007.67 1007.11 1006.47 1005.55 1005.19 1004.43 1004.15 1003.51 1002.23 1000.67 1000.03 998.19 996.31 998.03 997.87 997.11 996.39 994.91 994.47 993.95 992.75 992.19 991.39 990.59 989.91 989.23 988.39 987.87 987.19 986.43 985.95 985.91
1012.39 1013.07 1013.47 1013.91 1014.31 1014.47 1014.31 1015.35 1015.71 1016.07 1016.55 1016.91 1017.35 1017.63 1017.83 1017.91 1018.03 1018.03 1017.95 1017.87 1017.91 1017.83 1017.75 1017.43 1017.19 1016.91 1016.63 1016.27 1015.83 1015.39 1015.07 1014.79 1014.15 1013.27 1012.63 1011.83 1011.23 1010.47 1009.67 1008.67 1008.07 1007.67 1007.03 1006.19 1005.91 1005.07 1004.71 1003.91 1003.35 1003.19 1002.39 1000.91 999.59 998.03 995.15 995.55 996.31 996.19 995.99 994.59 993.31 993.23 992.75 992.15 991.63 990.27 988.43 987.55 986.83 986.47 985.75 985.19 984.75 984.63
1012.11 1012.87 1013.31 1013.67 1013.91 1014.35 1014.79 1015.23 1015.59 1015.91 1016.27 1016.63 1016.95 1017.31 1017.51 1017.59 1017.59 1017.55 1017.55 1017.67 1017.67 1017.59 1017.39 1017.27 1017.03 1016.71 1016.31 1015.87 1015.47 1014.99 1014.63 1014.31 1013.79 1012.95 1011.99 1011.19 1010.47 1009.59 1008.95 1008.35 1007.47 1006.83 1006.15 1005.23 1004.91 1004.47 1003.99 1003.39 1002.91 1002.43 1002.23 1001.23 999.75 997.63 995.47 992.55 993.83 994.43 995.07 994.35 993.07 992.11 992.39 991.55 990.35 988.95 987.55 986.59 985.67 984.83 984.63 984.11 983.51 983.51
1011.83 1012.59 1012.99 1013.31 1013.83 1014.19 1014.47 1014.87 1015.15 1015.35 1015.83 1016.27 1016.63 1016.87 1017.15 1017.31 1017.43 1017.51 1017.55 1017.51 1017.43 1017.35 1017.15 1016.87 1016.55 1016.19 1015.79 1015.47 1015.27 1014.99 1014.47 1013.79 1012.99 1012.19 1011.35 1010.55 1009.91 1009.23 1008.51 1007.95 1007.15 1006.11 1005.43 1004.31 1003.67 1003.51 1003.27 1002.79 1002.23 1001.79 1001.35 1000.67 999.55 997.87 996.63 994.79 991.47 991.79 993.27 993.35 992.71 991.79 991.11 991.23 990.15 989.11 988.59 987.47 985.67 984.31 983.35 982.63 982.55 982.71
1011.79 1012.39 1012.75 1013.07 1013.71 1014.15 1014.47 1014.79 1014.95 1015.19 1015.59 1015.95 1016.31 1016.63 1016.87 1017.03 1017.11 1017.23 1017.27 1017.19 1017.15 1016.99 1016.67 1016.19 1015.79 1015.55 1015.47 1015.39 1015.15 1014.75 1014.23 1013.63 1012.79 1011.75 1010.83 1009.95 1009.15 1008.79 1008.27 1007.67 1006.91 1006.07 1005.15 1003.87 1003.15 1002.31 1002.23 1001.75 1001.47 1000.99 1000.15 999.23 998.31 997.31 996.03 994.43 992.07 990.31 990.55 990.67 991.67 990.99 989.75 990.11 989.15 988.23 987.39 986.39 986.23 985.87 983.87 982.31 981.75 981.55
1011.99 1012.51 1012.91 1013.19 1013.59 1014.07 1014.23 1014.47 1014.67 1015.07 1015.39 1015.79 1016.11 1016.35 1016.43 1016.59 1016.71 1016.83 1016.87 1016.79 1016.55 1016.19 1015.87 1015.75 1015.71 1015.63 1015.43 1015.19 1014.91 1014.47 1013.71 1012.67 1011.95 1011.15 1010.35 1009.47 1008.67 1008.15 1007.83 1007.47 1006.51 1005.75 1005.23 1003.59 1002.67 1001.91 1001.27 1000.67 1000.11 999.75 999.27 998.27 997.15 996.19 994.87 993.71 991.51 989.15 988.79 988.23 989.35 989.19 988.55 988.47 987.63 987.39 986.55 985.91 986.11 985.35 984.23 982.67 981.07 980.79
1011.87 1012.47 1013.15 1013.47 1013.59 1014.03 1014.27 1014.43 1014.79 1014.99 1015.35 1015.63 1015.95 1016.19 1016.43 1016.51 1016.51 1016.23 1015.91 1015.87 1016.07 1016.15 1015.99 1015.71 1015.47 1015.31 1015.11 1014.83 1014.47 1013.91 1013.27 1012.31 1011.31 1010.31 1009.51 1008.91 1008.27 1007.59 1007.11 1006.95 1006.47 1005.27 1004.71 1003.47 1002.35 1001.27 999.91 999.67 999.03 998.43 997.83 997.31 996.51 995.91 994.07 992.95 991.03 988.67 987.31 986.59 986.59 987.51 987.23 986.71 986.15 985.71 985.39 985.31 985.07 984.39 983.43 982.51 981.51 980.15
1011.99 1012.59 1013.11 1013.67 1014.03 1014.27 1014.39 1014.51 1014.79 1015.03 1015.27 1015.59 1015.87 1016.03 1016.19 1016.19 1016.19 1016.11 1016.15 1016.11 1015.91 1015.75 1015.51 1015.27 1015.11 1015.03 1014.75 1014.43 1013.95 1013.39 1012.59 1011.59 1010.67 1009.75 1008.95 1008.47 1008.23 1007.79 1006.95 1006.23 1005.75 1004.99 1004.15 1002.79 1001.51 1000.83 999.59 998.75 998.19 997.39 996.63 996.47 995.75 995.23 993.55 991.75 990.39 988.87 986.99 985.71 985.03 985.35 985.55 985.39 984.83 984.23 983.79 983.35 982.91 982.27 981.79 981.27 980.43 978.91
1012.07 1012.55 1013.15 1013.67 1013.83 1014.15 1014.39 1014.55 1014.79 1015.03 1015.27 1015.55 1015.79 1015.95 1015.95 1015.87 1015.83 1015.75 1015.71 1015.59 1015.39 1015.15 1015.03 1014.95 1014.83 1014.67 1014.31 1013.79 1013.27 1012.63 1011.87 1010.99 1010.07 1009.35 1008.63 1008.15 1007.79 1007.43 1006.83 1005.87 1004.99 1004.23 1003.35 1002.31 1000.79 999.67 998.95 998.03 997.43 996.87 995.99 995.11 994.71 993.95 992.59 991.23 989.55 988.39 987.11 985.47 984.27 984.11 983.75 983.95 983.75 982.91 982.19 981.59 980.99 980.55 980.15 979.95 979.31 978.23
1012.11 1012.47 1012.95 1013.47 1013.71 1013.99 1014.19 1014.51 1014.63 1014.91 1015.19 1015.51 1015.71 1015.75 1015.67 1015.59 1015.47 1015.39 1015.27 1015.11 1014.95 1014.75 1014.71 1014.67 1014.51 1014.19 1013.79 1013.27 1012.71 1011.91 1010.99 1010.27 1009.63 1008.95 1008.55 1008.11 1007.55 1006.91 1006.31 1005.67 1004.71 1003.59 1002.67 1001.79 1000.71 998.87 997.83 997.19 996.31 995.79 995.19 994.39 993.91 993.11 991.83 990.91 989.39 987.87 986.31 985.31 983.75 983.03 982.83 982.59 982.43 981.83 980.95 979.63 978.71 978.67 978.39 978.03 977.75 977.59
Wind_Speed
7 6 7 7 7 6 6 6 6 6 6 6 6 6 7 6 4 2 3 2 3 3 4 1 2 3 5 5 6 7 7 9 11 5 6 7 7 14 19 20 21 22 23 24 26 26 26 26 27 27 26 26 26 26 27 27 27 27 27 28 29 29 30 29 30 31 31 30 30 31 35 32 31 31
6 6 6 6 7 6 6 6 6 6 6 6 6 6 6 6 7 6 4 5 4 6 3 4 3 2 4 4 5 5 8 12 12 7 7 7 7 17 19 20 21 22 23 24 24 26 26 27 27 27 27 27 27 27 28 28 28 28 29 29 29 30 30 30 30 30 30 31 30 30 31 35 34 32
7 7 7 6 6 6 6 6 6 5 6 6 6 6 6 6 6 6 5 3 5 6 6 4 1 0 2 3 5 4 4 6 10 8 9 9 15 20 13 18 20 21 23 24 25 25 26 26 26 27 27 27 28 28 29 29 29 29 30 30 30 29 29 29 30 30 31 31 31 31 31 32 35 35
7 8 8 7 7 6 6 6 6 5 4 5 5 5 5 4 4 4 5 8 9 4 4 3 4 2 3 6 8 7 5 5 9 6 7 9 15 10 9 14 20 21 23 24 25 25 26 27 27 27 27 28 29 29 30 30 30 31 31 30 30 30 29 29 29 29 29 29 30 30 30 31 32 35
7 7 7 7 7 7 7 6 6 5 5 4 4 4 5 5 4 5 5 7 11 6 7 7 4 0 2 3 4 7 6 8 8 8 7 8 7 8 8 9 14 19 22 23 24 25 27 27 27 28 28 28 29 30 30 31 31 30 30 29 29 29 29 29 29 29 29 29 29 30 30 30 31 31
7 7 8 7 7 6 7 6 6 6 5 4 4 4 5 4 5 4 4 5 7 9 3 6 3 4 4 4 5 6 8 7 8 9 9 7 7 8 9 9 9 17 21 22 23 24 25 27 28 28 28 28 29 30 30 30 30 30 30 29 29 29 28 28 28 28 28 29 29 30 30 30 31 32
8 8 8 8 7 6 7 6 6 5 5 5 5 5 4 4 4 4 4 3 5 8 5 3 6 2 3 5 7 6 6 7 6 8 7 8 8 7 9 10 9 14 19 21 22 24 27 27 28 28 29 30 30 29 30 30 30 30 30 30 30 30 29 28 28 28 28 28 29 30 30 30 31 32
10 10 9 8 8 7 8 6 6 5 5 5 5 4 4 4 4 4 4 5 6 4 9 3 2 7 5 5 4 6 6 6 7 7 9 7 7 8 8 9 8 10 18 21 24 26 25 26 26 27 28 28 28 29 30 30 30 29 29 29 29 29 28 28 28 28 28 28 29 30 30 31 32 31
10 10 10 9 9 8 8 7 7 6 7 5 5 5 4 4 4 3 4 5 5 7 9 10 4 7 7 4 5 4 8 9 8 9 8 8 8 8 6 6 7 12 19 22 24 24 24 24 25 26 26 27 28 28 27 28 28 29 29 29 29 29 28 28 28 28 28 28 28 28 29 30 30 31
9 9 9 10 10 10 10 9 7 7 7 6 5 5 4 3 3 3 4 5 6 7 9 8 12 4 7 9 3 3 6 10 14 12 6 7 8 9 10 7 6 7 8 9 9 13 16 19 23 24 26 27 26 25 24 25 26 28 27 28 28 28 28 29 29 29 27 27 27 28 29 30 31 32
8 8 8 9 9 10 9 9 8 8 7 5 5 6 5 4 3 4 4 5 6 6 9 9 8 10 6 6 11 6 6 9 8 13 16 13 6 8 10 11 7 7 10 12 19 18 17 20 19 23 25 25 25 24 24 25 27 27 26 26 26 26 27 27 27 27 28 30 29 28 28 29 30 32
7 7 7 7 7 7 6 7 6 7 7 5 6 5 5 4 5 5 5 6 6 6 6 7 10 8 10 9 7 7 7 7 4 4 10 15 14 10 8 8 12 10 10 12 8 9 13 15 18 22 22 23 25 27 27 28 29 29 26 24 26 27 28 28 29 31 32 32 31 30 30 30 31 32
7 6 6 6 5 6 8 11 9 9 8 6 7 6 6 6 6 6 6 5 5 5 6 8 8 9 10 10 13 11 11 12 10 10 8 11 12 13 15 8 7 11 12 12 11 7 5 11 12 9 11 12 18 22 29 25 31 32 32 32 32 32 32 32 33 33 34 33 32 31 31 31 31 31
7 7 6 6 12 12 13 13 14 14 14 13 9 6 7 7 7 7 6 6 5 4 5 6 8 9 8 10 11 12 12 10 10 12 12 15 18 14 15 16 5 11 12 12 14 12 7 11 14 11 12 11 12 12 13 13 17 24 30 31 31 31 32 32 33 33 33 33 32 32 31 31 31 31
9 7 7 6 10 11 12 11 15 14 15 15 16 16 15 12 9 7 6 5 6 6 5 5 6 6 10 11 11 12 12 12 14 11 14 14 14 17 16 20 12 5 11 19 15 11 3 6 14 13 10 10 12 12 12 21 27 30 31 31 32 32 33 33 33 33 33 32 32 32 32 31 31 31
9 9 8 7 7 7 8 7 8 12 15 15 14 16 17 17 16 14 8 6 5 5 6 6 8 11 12 12 11 11 12 12 13 13 12 13 15 15 18 13 18 12 11 18 21 23 5 3 13 16 12 8 10 14 19 28 31 30 31 32 32 33 33 34 34 34 33 33 32 32 32 32 31 31
10 9 9 9 7 7 15 10 7 5 6 11 15 14 15 14 14 14 16 15 9 6 7 7 9 8 11 13 11 9 11 13 15 14 14 13 15 15 16 16 12 15 11 18 23 24 15 7 12 17 15 8 10 13 19 27 29 31 31 31 32 33 33 34 34 33 33 32 33 33 33 32 32 32
11 11 10 10 9 8 8 7 8 7 6 4 5 5 5 5 9 13 14 14 15 13 8 7 9 10 9 12 13 13 11 12 14 16 14 11 11 13 14 17 17 16 11 14 18 23 20 6 11 18 17 11 11 12 19 29 30 30 31 32 32 33 33 33 33 33 34 34 33 33 33 32 33 32
10 10 9 9 9 9 9 7 9 8 7 6 6 6 7 8 8 9 8 8 7 7 8 10 12 13 11 11 12 10 10 12 13 10 12 13 14 15 15 16 13 14 8 11 12 19 20 8 14 17 14 13 12 12 19 28 30 31 33 33 33 33 33 33 33 33 34 34 34 34 34 33 33 32
9 9 9 9 8 8 8 12 16 12 8 7 8 9 9 8 8 8 8 11 12 11 9 8 8 8 10 16 15 15 13 10 9 12 12 11 11 11 12 14 12 12 8 9 11 15 15 10 14 18 14 13 13 14 11 24 31 32 34 34 33 33 32 33 33 33 34 34 35 35 34 34 32 34
9 8 8 8 8 8 8 12 16 17 15 9 11 10 9 7 4 5 6 12 15 15 15 17 20 21 22 22 22 20 20 16 15 11 12 11 8 12 12 14 11 11 9 8 12 14 17 13 15 16 15 15 17 15 14 15 23 30 31 33 33 32 31 31 31 32 33 34 35 35 35 34 33 34
8 9 15 10 7 7 7 14 16 16 13 8 8 6 5 5 5 6 6 5 5 11 16 19 21 22 19 16 16 18 20 23 17 8 11 9 8 11 10 14 15 16 12 10 11 12 9 14 14 17 17 21 16 12 12 14 15 23 24 28 29 29 29 28 29 29 31 32 32 32 33 32 29 20
7 7 12 15 9 8 9 15 15 16 13 6 6 6 4 6 7 6 2 3 5 6 7 7 5 6 9 7 8 10 18 18 15 10 10 9 8 11 11 11 14 15 11 3 5 13 10 12 14 11 14 16 18 15 15 16 12 11 10 11 17 28 31 33 33 35 34 32 31 30 30 30 28 17
9 9 8 11 16 17 17 16 16 15 15 8 4 5 6 6 5 1 0 4 8 5 2 3 6 7 6 6 8 7 8 9 9 11 10 9 9 10 12 11 11 13 14 8 10 12 11 11 16 14 15 18 19 18 20 17 15 13 14 14 17 23 29 31 28 34 34 34 35 35 35 35 33 17
9 9 8 6 15 20 19 18 17 15 13 11 6 6 5 4 3 5 5 2 4 3 4 5 6 8 7 6 6 7 7 7 7 9 11 11 11 11 10 10 12 13 12 12 17 12 12 12 17 11 13 9 15 20 22 23 17 13 14 15 16 15 12 12 10 15 22 33 35 36 35 34 34 25
9 8 9 8 13 20 20 17 15 14 12 12 5 4 7 8 8 5 3 2 1 1 3 5 5 6 7 6 5 6 7 7 8 9 9 11 12 11 10 12 13 15 16 14 21 13 12 13 14 13 16 14 15 19 22 24 19 14 16 14 12 16 12 13 12 14 14 12 14 18 22 30 30 32
10 8 9 10 17 18 17 15 15 13 13 10 5 3 5 6 8 2 3 2 3 4 4 5 7 7 6 6 6 6 7 7 8 8 8 9 11 11 13 13 14 17 19 16 15 12 11 12 15 13 18 17 19 18 23 22 23 15 16 18 16 16 14 11 12 13 11 11 12 24 28 29 32 33
11 10 9 11 20 17 16 15 13 13 11 4 5 5 5 5 3 4 3 3 3 4 4 5 7 7 5 5 7 6 7 8 8 10 10 11 12 13 12 14 14 15 17 17 16 14 13 13 16 13 18 16 16 20 24 25 22 22 21 20 18 18 13 15 17 18 14 14 13 12 13 14 15 17
10 12 18 20 18 16 15 15 12 6 6 5 4 4 4 4 5 3 1 1 1 3 6 7 7 7 6 6 8 9 10 10 10 9 9 10 12 13 15 15 15 14 13 13 14 13 13 13 16 15 15 12 14 19 22 26 24 23 20 22 21 14 12 14 13 14 12 13 12 12 13 11 13 12
18 18 19 19 17 16 11 6 6 4 2 2 2 1 4 4 1 1 0 1 2 5 6 7 7 7 6 7 8 10 10 9 9 9 10 10 10 10 12 13 13 12 12 13 14 14 14 14 13 13 15 13 13 17 20 20 24 23 20 20 23 22 19 15 13 15 15 13 14 12 14 12 13 13
12 15 13 10 10 9 11 10 8 7 5 5 4 3 2 1 0 0 1 2 5 6 6 7 7 6 7 7 8 8 8 9 9 8 11 11 12 10 11 12 15 12 10 10 12 13 13 17 19 16 16 16 14 14 19 18 22 23 22 20 20 20 18 14 16 12 13 12 13 11 14 13 13 16
8 8 11 12 7 6 7 7 5 5 3 3 3 1 0 0 1 3 6 7 5 6 5 7 7 7 6 7 8 8 8 9 9 9 10 10 13 11 10 13 13 13 12 9 9 12 14 14 16 18 18 17 20 17 14 16 19 19 22 21 19 23 22 17 16 16 20 15 16 14 13 12 12 13
9 8 7 6 6 5 6 5 5 3 2 2 1 0 0 1 1 1 1 4 6 6 5 6 7 8 6 8 7 8 9 9 9 9 10 11 11 13 11 13 13 12 13 13 12 9 10 12 14 16 17 18 22 20 19 20 20 15 17 19 20 23 23 21 20 17 14 12 17 17 17 15 15 15
9 7 7 6 7 6 6 5 5 4 3 1 0 0 2 1 1 3 4 5 6 5 6 6 6 7 7 8 8 8 9 11 9 10 12 12 12 12 12 13 13 12 11 14 14 14 13 11 11 13 16 18 18 18 17 17 24 19 17 20 20 21 22 17 19 21 18 15 14 15 13 16 13 15
10 8 8 7 6 6 6 6 6 5 4 3 2 1 2 2 4 5 4 5 5 6 6 6 6 6 7 8 8 9 9 11 12 10 8 9 10 11 11 13 12 13 13 14 13 11 10 13 12 15 14 13 15 17 20 21 20 21 17 18 16 20 21 17 17 19 20 19 14 17 15 15 15 13
8 8 8 8 9 9 8 7 6 6 6 4 3 2 2 3 4 4 4 4 4 5 5 6 7 6 7 8 8 8 10 12 12 12 12 9 10 12 11 12 12 14 13 13 14 14 12 12 11 13 18 18 15 18 15 12 21 17 17 17 15 17 18 18 17 18 18 17 17 15 16 18 16 13
9 8 8 8 10 10 11 8 8 6 5 4 4 3 3 3 3 3 5 6 5 5 6 6 6 7 8 8 10 9 9 9 12 13 12 13 12 12 13 13 14 13 14 13 12 11 11 13 12 11 15 18 20 21 24 8 17 24 18 19 19 15 17 18 20 23 19 16 16 17 17 16 15 13
10 8 8 8 11 10 8 8 8 6 6 4 4 3 3 3 3 5 5 4 5 5 6 6 7 7 8 8 9 10 10 10 11 12 14 12 12 12 11 12 15 13 13 14 11 13 10 13 12 12 11 15 19 23 23 22 11 11 18 20 19 18 15 18 18 17 16 16 17 17 13 16 15 13
9 9 9 10 11 11 11 9 9 8 6 5 3 3 3 3 3 4 4 5 5 6 6 7 7 7 8 8 9 10 12 12 12 11 11 12 13 12 14 14 15 16 14 15 13 10 11 12 11 11 12 15 17 18 19 22 26 16 15 27 22 19 18 16 20 22 20 19 18 15 16 16 15 19
8 8 8 8 10 10 9 8 8 7 5 4 4 3 3 4 4 4 5 6 5 6 7 7 7 7 7 8 9 10 11 13 14 14 13 12 12 12 12 13 13 15 14 18 17 15 11 12 11 12 13 13 16 18 19 22 23 23 20 22 33 30 23 17 20 19 18 18 16 17 18 14 17 14
8 9 7 7 10 10 10 9 8 6 5 4 3 3 3 3 4 4 5 6 7 6 6 6 7 7 8 9 9 10 11 12 12 12 13 13 13 13 15 17 16 14 15 19 18 16 16 14 18 30 27 19 19 18 17 18 22 22 20 18 16 29 35 32 25 20 18 17 15 17 18 17 16 15
9 8 7 8 11 9 9 7 5 5 4 4 4 3 3 4 5 9 7 8 6 6 6 7 6 7 8 9 10 11 12 12 12 13 13 13 13 14 17 13 13 16 16 18 17 18 16 16 16 15 14 14 14 15 18 17 23 23 22 19 15 17 27 31 36 35 27 19 16 17 18 17 16 16
8 7 10 9 8 8 6 5 5 5 4 4 3 3 3 4 4 5 5 6 6 5 6 6 6 7 8 9 10 10 11 12 12 14 13 12 11 14 14 14 14 16 13 17 15 17 15 18 15 16 12 10 12 13 19 20 21 22 23 22 20 13 13 23 31 34 36 39 37 29 21 16 13 14
9 8 7 7 9 6 5 5 5 4 4 4 4 3 4 4 5 5 5 5 6 6 5 6 7 8 9 10 11 11 11 11 12 13 12 13 12 13 13 17 16 16 14 16 16 18 13 15 12 13 13 13 12 14 19 21 21 20 20 22 19 17 17 11 14 22 29 35 40 41 44 42 36 31
7 7 7 7 7 5 5 5 5 5 4 4 4 4 4 4 5 5 5 5 5 6 6 7 8 8 9 11 11 12 12 14 15 12 10 12 12 13 14 14 15 17 16 17 16 19 15 15 14 12 12 12 12 15 19 19 21 22 22 22 24 20 16 14 13 15 15 15 24 35 39 41 40 42
Wind_Direction
158 154 160 153 151 154 149 147 148 153 152 158 160 161 164 175 178 231 253 251 250 281 194 184 309 70 4 15 11 348 337 334 337 338 337 328 324 323 328 329 329 328 327 327 326 325 323 321 320 317 315 313 311 309 306 305 302 298 296 295 293 292 291 290 290 289 286 286 286 285 289 287 286 286
156 155 153 153 150 155 148 152 155 154 159 158 162 166 170 179 190 195 219 256 202 261 234 194 253 3 35 20 346 334 321 326 331 330 326 321 312 321 325 324 324 324 324 322 321 320 319 317 316 313 310 308 306 303 301 298 297 296 295 294 293 292 290 289 288 287 288 287 286 284 283 286 284 281
159 161 161 159 153 154 147 146 151 152 151 154 152 161 160 183 183 204 220 257 241 206 231 232 213 338 8 333 313 303 273 303 320 321 318 315 317 322 318 319 319 320 320 320 319 317 316 313 310 308 305 303 303 301 300 299 298 297 296 294 293 291 290 288 288 287 285 284 284 283 282 279 283 281
167 164 165 168 159 156 144 146 145 142 138 137 142 152 156 168 167 165 204 238 244 211 243 248 287 94 5 329 312 305 306 297 307 297 300 305 315 316 312 313 314 315 316 316 316 313 313 313 308 306 304 301 299 297 296 294 294 293 292 291 289 289 288 287 286 286 285 285 283 283 283 282 277 280
169 172 168 167 160 152 147 148 143 143 145 143 153 162 162 177 182 176 216 239 268 251 252 259 211 245 308 275 264 288 298 310 308 305 304 303 304 304 303 304 304 308 310 311 311 312 312 310 307 305 303 299 297 295 292 291 290 288 287 287 287 286 285 285 284 284 284 284 284 284 283 282 281 277
173 170 165 164 158 159 148 148 152 150 153 159 156 180 174 192 187 196 178 246 258 279 186 271 259 251 220 238 267 273 296 293 299 304 307 305 301 305 302 301 299 301 305 306 307 310 308 305 305 302 301 298 295 294 292 291 290 288 286 285 285 286 285 284 284 284 284 283 283 282 281 280 279 277
166 166 168 167 159 151 145 153 152 148 156 158 172 185 180 174 198 195 205 223 253 269 259 208 273 214 257 283 290 283 272 279 278 289 295 303 300 291 293 293 293 296 298 300 301 303 307 302 301 300 299 298 296 293 292 290 288 288 285 285 285 284 284 283 283 283 282 283 282 282 281 279 279 276
172 171 164 173 165 157 152 157 154 156 156 168 176 175 193 188 193 199 201 220 247 280 294 192 296 297 295 277 257 280 283 287 296 291 293 284 280 283 282 284 289 286 291 300 303 302 300 301 299 297 297 296 295 294 293 291 290 288 286 285 285 283 281 280 280 280 281 281 282 281 280 282 278 278
171 173 177 169 167 163 158 162 166 164 168 173 171 182 191 192 195 201 209 228 239 269 275 290 281 297 289 268 280 284 315 312 300 299 297 300 301 295 280 280 275 282 297 300 299 298 295 295 295 296 297 297 297 297 296 297 294 290 286 284 282 280 277 276 277 276 278 282 285 284 286 286 285 284
176 177 174 174 170 170 171 174 167 168 170 166 175 184 192 189 205 213 231 244 250 252 269 284 304 308 319 315 293 325 320 319 317 312 294 306 313 310 311 298 297 300 291 296 290 286 287 284 285 292 297 296 295 294 294 297 296 292 285 281 280 278 277 274 272 275 280 281 283 283 283 283 280 278
176 178 176 175 175 175 173 167 169 166 168 172 184 189 189 205 201 231 238 241 253 256 280 290 288 302 304 298 311 318 303 300 300 307 317 316 321 308 314 312 306 295 285 270 279 283 281 284 289 290 288 288 288 289 291 295 296 294 289 285 282 281 279 282 282 280 280 281 284 285 283 281 280 278
177 178 177 178 177 170 164 160 161 163 168 164 186 190 185 197 214 226 233 244 251 266 272 290 305 303 305 306 280 287 295 280 272 296 308 309 323 319 307 307 311 305 287 292 276 262 276 278 272 276 279 279 283 285 289 289 289 288 287 288 288 286 283 281 280 279 279 281 283 282 278 277 277 276
169 174 176 172 164 162 166 173 173 174 171 169 182 196 186 202 210 222 227 227 249 265 275 281 286 291 301 307 315 322 332 331 318 320 314 296 310 315 311 311 297 291 298 293 282 275 257 277 276 265 265 264 272 273 277 280 280 280 280 280 279 279 279 280 281 280 280 280 278 277 275 275 275 275
174 175 170 172 174 178 183 188 189 191 195 192 190 190 191 202 213 221 226 234 229 238 257 270 290 295 293 306 315 315 316 318 313 312 316 315 315 315 311 306 316 307 299 293 292 287 270 275 277 272 268 267 261 266 270 267 273 276 277 277 277 276 275 275 275 276 276 275 272 272 273 273 273 273
172 171 170 169 186 185 189 191 197 199 202 206 209 208 209 210 208 215 224 227 228 240 249 266 270 274 293 303 311 312 316 316 315 315 314 312 313 314 317 315 319 145 322 307 296 284 192 246 282 276 260 264 271 264 261 272 279 282 280 278 276 275 274 274 273 274 273 271 270 270 271 271 271 271
169 170 169 176 183 184 182 181 198 205 209 214 222 227 227 228 228 229 224 233 249 260 279 285 290 298 296 303 307 309 312 309 309 309 309 307 307 307 301 300 300 317 327 313 308 298 292 259 281 286 282 268 261 270 277 283 286 284 282 280 277 276 275 274 274 273 271 271 270 269 270 271 271 272
169 169 170 173 181 185 190 190 186 190 217 224 226 229 234 238 244 252 257 260 262 267 273 277 283 284 298 297 295 298 304 309 306 308 304 302 298 297 297 298 309 313 340 311 299 298 305 322 287 288 288 281 267 273 278 281 283 283 281 280 276 275 273 272 271 270 270 271 270 270 270 271 272 271
170 173 172 172 175 177 183 179 178 186 195 212 231 244 254 258 255 257 262 267 270 273 276 283 282 284 276 280 288 294 300 306 304 302 300 310 312 311 302 304 301 297 310 294 294 293 295 330 301 296 294 294 277 275 279 285 287 285 283 282 278 275 273 272 271 270 270 271 270 270 269 271 271 270
171 172 175 175 171 167 174 178 178 181 186 193 210 225 232 238 239 241 246 253 254 255 259 261 265 271 272 275 286 293 296 291 290 303 315 318 310 302 302 294 290 293 293 286 285 282 295 338 305 294 291 291 282 276 280 285 287 287 285 283 280 276 274 273 272 270 270 269 267 268 270 271 269 267
174 176 176 174 171 166 162 182 190 191 183 194 212 220 227 231 234 232 234 250 261 264 257 248 254 267 278 287 292 293 296 306 322 316 309 306 299 299 295 289 302 293 302 290 284 284 291 313 295 292 286 283 279 278 271 283 286 285 283 282 279 278 277 275 274 272 271 269 269 269 269 268 266 267
174 181 180 177 167 165 166 186 198 200 197 197 208 216 217 216 218 250 256 268 273 277 283 286 290 291 291 292 293 298 305 305 309 310 304 296 309 301 299 294 295 287 297 285 284 283 288 293 291 293 293 296 294 294 290 285 282 282 282 279 278 277 276 275 274 274 272 269 267 265 264 264 265 266
175 181 183 173 168 171 176 196 199 203 207 201 193 192 207 220 246 255 252 268 283 293 293 292 289 288 291 297 304 308 307 303 303 297 288 298 304 287 284 288 294 295 289 285 281 283 292 313 312 308 303 296 281 281 283 289 281 278 275 276 278 278 277 276 277 279 277 271 266 264 262 263 266 270
165 174 189 187 181 183 195 200 204 206 204 187 193 187 201 239 243 246 257 287 299 290 279 278 299 310 305 304 305 299 300 298 298 290 282 291 282 282 283 282 293 294 286 260 319 300 301 299 292 301 303 295 295 295 288 289 290 291 283 276 273 273 274 276 276 276 277 280 282 280 276 273 272 276
170 173 180 197 199 195 199 204 205 205 205 194 179 204 215 222 227 226 41 267 270 279 326 300 294 290 297 298 298 289 285 283 276 280 281 281 280 275 279 279 273 273 282 294 311 296 293 279 285 296 289 296 301 308 299 286 279 278 279 275 273 271 273 271 272 270 270 270 271 273 274 274 272 268
164 169 175 177 202 201 201 201 202 204 210 207 199 203 199 195 243 266 248 275 24 354 305 305 304 297 295 290 287 282 280 279 275 276 280 279 279 280 283 287 285 279 278 287 301 290 294 299 289 290 277 256 278 292 289 290 283 281 275 270 271 269 257 257 251 260 259 263 264 264 265 265 265 263
166 169 178 179 201 204 200 198 198 201 204 210 191 203 231 257 264 272 74 87 3 346 321 306 295 289 284 279 280 281 280 276 275 275 274 279 280 280 280 285 289 290 288 293 295 287 288 289 289 296 289 290 288 286 290 289 287 289 287 273 262 266 251 253 251 253 253 246 252 253 257 260 260 261
170 162 176 181 193 192 187 189 194 198 202 210 214 204 239 247 267 345 76 43 22 332 319 299 284 277 272 278 280 284 282 279 274 272 275 273 274 270 269 266 265 272 281 290 288 278 271 271 279 279 284 287 289 290 285 285 292 296 283 283 281 273 268 269 258 255 246 247 250 260 263 263 264 264
170 170 167 172 182 182 187 188 191 198 205 175 173 216 227 256 55 70 21 35 349 320 294 279 274 270 269 272 278 277 280 283 280 279 275 274 271 270 271 267 265 264 270 275 277 276 273 273 278 271 275 279 282 284 287 286 281 287 292 290 283 275 262 252 256 259 256 256 254 250 250 253 253 257
169 169 167 172 180 186 186 189 183 142 115 139 191 214 229 68 67 58 60 334 331 287 266 264 265 271 270 274 279 283 286 284 285 281 278 275 273 272 270 268 265 262 263 266 266 265 266 271 275 280 276 263 268 274 278 282 289 287 288 291 285 279 270 254 250 254 251 248 245 246 242 245 252 244
165 164 169 175 183 187 173 134 95 87 126 160 172 87 55 62 70 83 81 304 247 255 262 261 268 274 283 285 283 288 288 287 284 286 283 283 274 272 276 280 274 257 248 253 261 262 264 271 272 278 276 269 262 270 274 281 282 280 283 278 282 287 273 272 259 248 247 249 250 248 249 241 244 243
168 169 171 175 157 129 130 121 109 105 84 63 52 53 53 74 98 155 175 221 251 256 259 267 273 280 284 288 290 287 285 283 280 279 281 280 279 278 275 275 279 281 254 232 247 259 268 279 279 276 278 279 269 256 270 272 272 279 278 275 277 274 279 274 269 272 268 258 252 247 247 243 241 235
148 139 139 127 105 101 71 76 62 64 76 82 83 72 81 193 264 271 277 274 268 276 274 274 276 279 283 281 281 282 279 278 279 279 276 278 283 282 282 284 281 282 281 257 231 244 256 262 275 278 274 277 280 279 267 261 263 270 275 275 273 273 273 271 266 254 254 260 267 258 252 243 240 236
104 106 106 114 119 119 117 97 100 83 86 69 89 87 271 296 285 258 234 243 256 253 259 264 269 277 279 281 282 283 286 280 281 282 280 276 274 283 280 277 280 288 294 296 291 265 247 251 251 259 268 272 273 270 273 276 266 256 264 271 271 269 270 265 269 271 268 254 250 252 253 243 242 240
127 133 135 140 145 139 139 136 133 136 128 129 52 291 288 286 251 249 248 245 252 259 259 264 273 278 284 287 288 287 284 287 282 280 287 288 286 285 287 285 285 285 284 289 292 293 289 268 259 254 255 256 254 248 252 262 271 269 262 267 268 269 269 269 266 266 264 247 250 252 243 244 235 233
145 152 151 150 139 150 144 156 156 146 153 166 174 202 208 222 237 256 251 256 255 258 264 269 271 275 282 282 287 288 287 291 293 293 275 269 276 276 282 286 288 293 295 295 291 289 287 293 292 290 279 268 266 255 225 241 261 267 270 261 262 265 269 266 266 261 255 255 244 244 247 245 244 231
146 151 153 160 162 152 152 159 163 157 154 168 179 188 204 230 214 229 246 253 245 260 268 275 279 279 280 281 283 283 287 293 294 291 292 287 287 286 282 278 281 290 291 290 293 293 292 289 295 293 298 299 288 287 282 222 249 265 269 271 262 264 268 271 261 256 249 249 243 239 243 243 239 231
151 159 162 167 164 159 151 162 161 167 163 169 178 190 212 252 247 234 261 284 277 271 268 274 278 285 286 285 285 283 286 288 290 294 290 291 287 285 287 287 289 288 287 284 284 287 291 293 291 291 293 295 294 290 285 269 251 257 262 269 270 262 272 275 277 276 268 249 238 233 241 243 241 233
161 157 167 172 165 160 148 157 152 160 158 165 170 195 225 237 267 275 286 282 277 277 281 279 276 280 279 283 292 294 292 284 284 285 289 290 291 294 292 295 298 297 292 291 290 289 286 286 287 285 281 284 292 292 296 297 270 242 247 262 270 272 265 271 269 268 269 261 249 245 238 239 238 234
158 165 169 168 163 149 159 167 159 159 156 163 178 196 214 238 249 271 267 265 271 275 277 276 271 272 281 288 286 289 294 297 291 286 288 292 291 291 297 298 298 300 296 296 294 287 287 283 282 281 275 278 280 282 288 290 290 284 252 253 261 268 261 260 268 267 270 278 283 273 249 242 245 237
156 162 168 161 162 145 150 156 155 153 163 177 174 186 203 241 245 244 260 261 266 266 265 268 280 289 290 287 288 284 280 278 284 290 290 289 290 289 292 295 297 301 301 299 300 300 289 281 283 287 285 276 274 278 278 278 278 279 274 259 250 255 257 254 253 258 267 262 264 272 277 260 241 230
148 157 166 160 137 151 153 157 149 156 165 169 173 206 220 227 250 256 250 255 245 259 279 288 291 288 284 285 282 284 286 286 282 283 286 286 288 292 297 303 300 299 298 298 299 297 295 295 290 293 291 285 282 280 277 278 274 279 278 270 244 251 254 248 250 251 253 257 262 266 266 266 260 240
153 161 160 142 143 148 148 153 163 156 161 167 178 196 211 230 231 263 269 284 294 283 274 275 280 282 282 280 282 283 281 282 286 289 291 291 299 301 301 300 295 301 301 299 300 298 294 294 289 283 280 281 284 286 278 272 280 284 284 282 276 249 251 252 251 250 247 247 249 249 251 257 260 254
151 151 148 143 127 138 163 159 155 161 163 164 178 205 211 237 244 261 265 262 262 267 267 275 280 280 280 280 278 278 279 281 286 290 291 296 301 302 302 302 297 296 291 291 289 292 293 298 295 295 286 274 276 275 279 281 281 282 285 286 283 276 250 249 252 252 251 249 246 243 241 243 250 241
148 153 158 162 145 164 160 163 159 162 163 171 186 196 218 233 246 251 248 256 264 269 278 277 281 281 281 283 281 278 276 282 290 293 297 302 301 299 296 300 298 298 294 294 296 296 291 294 289 292 292 291 285 284 284 286 283 284 284 284 284 282 273 259 253 255 253 250 249 248 245 240 240 252
156 156 157 161 166 161 164 161 163 160 163 177 187 203 218 231 248 255 259 255 262 266 276 276 276 278 280 283 286 285 286 293 294 286 290 295 295 297 296 295 297 298 296 301 300 301 300 296 292 288 279 276 284 282 287 285 288 291 287 282 283 280 277 276 268 261 261 264 246 241 242 241 236 237